Kosmos-1971

operational
NORAD ID: 19502 Int'l Des: 1988-085 Owner: UNKS Country: SU
MEOCIRCULAR

Über Kosmos-1971

Beschreibung wird geladen...

Live-Position

3D-Globus wird geladen...

Nächste Überflüge

Höhenverlauf

Altitude vs Time

uPlot chart will show altitude changes over time

Zweizeiliger Elementsatz

1 19502U 88085B 25260.27386153 -.00000055 00000-0 00000-0 0 9997
2 19502 65.3904 323.6851 0021946 13.6073 257.9420 2.13101584273530
Epoch: 17. Sept. 2025 • Age: 20 hours

Aktueller Status

Höhe 19186.2 km
Geschwindigkeit 3.94 km/s
Subsatellitenpunkt -3.35°S, 112.73°E
Startdatum 16. Sept. 1988
Alter 37 years
Typ other

Technische Details

Klassifizierung Payload
Masse 1300.00 kg
Trockenmasse 1200.00 kg
Gesamtmasse 1300.00 kg
Länge 4.00 m
Durchmesser 1.50 m
Spannweite 7.80 m
Form Cyl + Ant + 2 Pan
Hersteller OAZ
Bus-Typ Uragan
Phasenstatus In Orbit
Besitzer/Staat UNKS/SU

Große Konstellationen

Loading constellations...